Location: Edoum�
(0.9447°N, 10.6482°E)
Time: 00:40:16
(UTC+00:00)

PEGASUS R/B - Pass Details

Date: 07 June 2020
Orbit: 299 x 3608 km, 105.6° (Epoch: 13 July)

Event Time Altitude Azimuth Distance (km) Brightness Sun altitude
Rises 03:36:27 0° 27° (NNE) 2,052 8.1 -22.5°
Reaches altitude 10° 03:38:01 10° 33° (NNE) 1,319 7.1 -22.2°
Maximum altitude 03:40:33 53° 112° (ESE) 547 4.5 -21.6°
Enters shadow 03:41:12 44° 155° (SSE) 660 4.6 -21.4°
